Date String (YYYY-MM-DD hh:mm:ss) UTC,Instrument flags,absolute air pressure of the measurement (hPa),sample flow rate (lpm),inlet stack bypass flow (lpm),air temperature of the measurement (°C),ambient temperature measured by the external sensor (°C),aerosol sample conditioner tube jacket temperature (°C),OPC LED temperature (°C),internal box temperature (°C),relative humidity of the measurement (%),span deviation,mass concentration of particles derived from Lorenz-Mie calculation of OPC scattering (μg/m³),mass concentration of particles derived from Lorenz-Mie calculation of OPC scattering (μg/m³),mass concentration of particles derived from Lorenz-Mie calculation of OPC scattering (μg/m³)
DateTimeUTC,F1_M11,P_M11,Q1_M11,Q2_M11,T1_M11,T2_M11,T3_M11,T4_M11,T5_M11,U1_M11,ZSPAN_M11,X0_M11,X2_M11,X1_M11
2023-10-21 19:00:00,SystemResetWarning,0828.5,5.01,000.00,028.2,025.8,000.0,036.7,029.9,12.1,0000.0,0015.14,0003.07,0001.28
2023-10-21 19:01:00,SystemResetWarning,0828.5,5.01,000.00,028.3,026.2,000.0,036.7,030.0,12.1,0000.0,0017.42,0003.14,0001.30
2023-10-21 19:02:00,SystemResetWarning,0828.4,5.00,000.00,028.3,026.5,000.0,036.8,030.0,11.8,0000.0,0017.59,0003.16,0001.31
2023-10-21 19:03:00,SystemResetWarning,0828.4,5.00,000.00,028.3,026.8,000.0,036.8,030.1,11.9,0000.0,0017.29,0003.20,0001.32
2023-10-21 19:04:00,SystemResetWarning,0828.4,5.00,000.00,028.4,027.0,000.0,036.8,030.2,11.8,0000.0,0017.02,0003.22,0001.32
2023-10-21 19:05:00,SystemResetWarning,0828.4,5.00,000.00,028.4,027.3,000.0,036.8,030.3,11.6,0000.0,0016.07,0003.16,0001.32
2023-10-21 19:06:00,SystemResetWarning,0828.4,5.00,000.00,028.5,027.4,000.0,036.8,030.3,11.6,0000.0,0016.30,0003.18,0001.31
2023-10-21 19:07:00,SystemResetWarning,0828.4,4.99,000.00,028.5,026.1,000.0,036.8,030.3,11.7,0000.0,0017.93,0003.18,0001.32
2023-10-21 19:08:00,SystemResetWarning,0828.3,5.00,000.00,028.4,024.5,000.0,036.7,030.0,12.0,0000.0,0017.00,0003.17,0001.33
2023-10-21 19:09:00,SystemResetWarning,0828.4,5.01,000.00,028.4,024.4,000.0,036.7,029.9,11.8,0000.0,0017.31,0003.15,0001.32
2023-10-21 19:10:00,SystemResetWarning,0828.3,5.01,000.00,028.3,024.7,000.0,036.7,029.8,11.8,0000.0,0017.24,0003.14,0001.33
2023-10-21 19:11:00,SystemResetWarning,0828.3,5.00,000.00,028.2,025.1,000.0,036.7,029.8,11.8,0000.0,0016.79,0003.14,0001.35
2023-10-21 19:12:00,SystemResetWarning,0828.3,5.01,000.00,028.2,025.6,000.0,036.7,029.8,11.7,0000.0,0015.62,0003.14,0001.35
2023-10-21 19:13:00,SystemResetWarning,0828.3,5.00,000.00,028.2,026.0,000.0,036.7,029.9,11.3,0000.0,0015.61,0003.16,0001.35
2023-10-21 19:14:00,SystemResetWarning,0828.3,5.00,000.00,028.2,026.3,000.0,036.7,030.0,11.5,0000.0,0016.58,0003.14,0001.35
2023-10-21 19:15:00,SystemResetWarning,0828.3,5.00,000.00,028.3,026.6,000.0,036.7,030.1,11.5,0000.0,0016.44,0003.15,0001.35
2023-10-21 19:16:00,SystemResetWarning,0828.3,5.00,000.00,028.3,026.9,000.0,036.7,030.1,11.4,0000.0,0016.27,0003.16,0001.35
2023-10-21 19:17:00,SystemResetWarning,0828.3,5.01,000.00,028.4,027.1,000.0,036.8,030.2,11.2,0000.0,0016.00,0003.12,0001.35
2023-10-21 19:18:00,SystemResetWarning,0828.3,5.00,000.00,028.4,027.3,000.0,036.8,030.3,11.2,0000.0,0014.59,0003.07,0001.35
2023-10-21 19:19:00,SystemResetWarning,0828.2,4.98,000.00,028.5,026.5,000.0,036.8,030.3,11.3,0000.0,0014.11,0003.09,0001.34
2023-10-21 19:20:00,SystemResetWarning,0828.2,5.00,000.00,028.4,024.8,000.0,036.7,030.0,11.5,0000.0,0014.17,0003.11,0001.33
2023-10-21 19:21:00,SystemResetWarning,0828.2,5.01,000.00,028.3,024.4,000.0,036.6,029.9,11.8,0000.0,0015.00,0003.09,0001.33
2023-10-21 19:22:00,SystemResetWarning,0828.2,5.01,000.00,028.3,024.7,000.0,036.6,029.8,12.0,0000.0,0015.00,0003.03,0001.31
2023-10-21 19:23:00,SystemResetWarning,0828.2,5.00,000.00,028.2,025.1,000.0,036.6,029.7,12.0,0000.0,0015.31,0003.06,0001.32
2023-10-21 19:24:00,SystemResetWarning,0828.2,4.99,000.00,028.2,025.5,000.0,036.7,029.8,12.1,0000.0,0014.75,0002.99,0001.31
2023-10-21 19:25:00,SystemResetWarning,0828.1,5.00,000.00,028.2,025.9,000.0,036.7,029.9,12.1,0000.0,0015.14,0002.97,0001.32
2023-10-21 19:26:00,SystemResetWarning,0828.2,5.01,000.00,028.2,026.3,000.0,036.7,029.9,11.8,0000.0,0015.45,0002.95,0001.32
2023-10-21 19:27:00,SystemResetWarning,0828.2,5.00,000.00,028.3,026.6,000.0,036.7,030.0,11.5,0000.0,0015.71,0003.02,0001.30
2023-10-21 19:28:00,SystemResetWarning,0828.2,5.00,000.00,028.3,026.9,000.0,036.7,030.1,11.4,0000.0,0017.77,0003.09,0001.30
2023-10-21 19:29:00,SystemResetWarning,0828.2,5.00,000.00,028.4,027.1,000.0,036.7,030.2,11.5,0000.0,0018.70,0003.13,0001.31
2023-10-21 19:30:00,SystemResetWarning,0828.2,5.00,000.00,028.4,027.3,000.0,036.8,030.2,11.5,0000.0,0018.64,0003.12,0001.31
2023-10-21 19:31:00,SystemResetWarning,0828.2,4.99,000.00,028.5,027.0,000.0,036.8,030.3,11.5,0000.0,0017.69,0003.11,0001.32
2023-10-21 19:32:00,SystemResetWarning,0828.2,4.99,000.00,028.4,025.2,000.0,036.7,030.1,11.4,0000.0,0017.12,0003.14,0001.32
2023-10-21 19:33:00,SystemResetWarning,0828.1,5.02,000.00,028.3,024.3,000.0,036.6,029.9,11.6,0000.0,0016.80,0003.15,0001.31
2023-10-21 19:34:00,SystemResetWarning,0828.1,4.99,000.00,028.3,024.6,000.0,036.6,029.9,11.5,0000.0,0016.11,0003.09,0001.30
2023-10-21 19:35:00,SystemResetWarning,0828.1,5.00,000.00,028.2,024.9,000.0,036.6,029.7,11.6,0000.0,0015.59,0003.03,0001.29
2023-10-21 19:36:00,SystemResetWarning,0828.1,5.01,000.00,028.2,025.3,000.0,036.6,029.8,11.7,0000.0,0014.64,0003.00,0001.26
2023-10-21 19:37:00,SystemResetWarning,0828.1,5.00,000.00,028.2,025.8,000.0,036.6,029.8,11.6,0000.0,0014.65,0003.04,0001.25
2023-10-21 19:38:00,SystemResetWarning,0828.1,4.99,000.00,028.2,026.1,000.0,036.6,029.9,11.6,0000.0,0015.29,0002.99,0001.25
2023-10-21 19:39:00,SystemResetWarning,0828.1,5.00,000.00,028.2,026.5,000.0,036.7,030.0,11.6,0000.0,0014.45,0002.91,0001.25
2023-10-21 19:40:00,SystemResetWarning,0828.1,5.00,000.00,028.3,026.8,000.0,036.7,030.1,11.6,0000.0,0013.35,0002.87,0001.24
2023-10-21 19:41:00,SystemResetWarning,0828.1,5.01,000.00,028.3,027.1,000.0,036.7,030.2,11.7,0000.0,0012.55,0002.79,0001.24
2023-10-21 19:42:00,SystemResetWarning,0828.0,5.00,000.00,028.4,027.3,000.0,036.7,030.2,11.7,0000.0,0012.63,0002.81,0001.23
2023-10-21 19:43:00,SystemResetWarning,0828.0,4.98,000.00,028.4,026.5,000.0,036.7,030.2,12.0,0000.0,0011.94,0002.71,0001.23
2023-10-21 19:44:00,SystemResetWarning,0827.9,5.01,000.00,028.3,024.8,000.0,036.6,030.0,12.1,0000.0,0012.29,0002.67,0001.23
2023-10-21 19:45:00,SystemResetWarning,0827.8,5.01,000.00,028.3,024.4,000.0,036.6,029.9,12.1,0000.0,0013.50,0002.66,0001.24
2023-10-21 19:46:00,SystemResetWarning,0827.8,5.00,000.00,028.2,024.7,000.0,036.6,029.7,12.3,0000.0,0014.35,0002.72,0001.25
2023-10-21 19:47:00,SystemResetWarning,0827.9,5.00,000.00,028.1,025.1,000.0,036.6,029.7,12.8,0000.0,0014.50,0002.72,0001.26
2023-10-21 19:48:00,SystemResetWarning,0827.8,5.01,000.00,028.1,025.5,000.0,036.6,029.8,12.7,0000.0,0014.08,0002.67,0001.27
2023-10-21 19:49:00,SystemResetWarning,0827.9,4.99,000.00,028.2,025.9,000.0,036.6,029.8,12.7,0000.0,0012.89,0002.59,0001.26
2023-10-21 19:50:00,SystemResetWarning,0827.8,5.00,000.00,028.2,026.3,000.0,036.6,029.9,12.8,0000.0,0012.15,0002.60,0001.26
2023-10-21 19:51:00,SystemResetWarning,0827.8,5.00,000.00,028.2,026.6,000.0,036.6,030.0,12.4,0000.0,0012.75,0002.54,0001.25
2023-10-21 19:52:00,SystemResetWarning,0827.8,5.00,000.00,028.3,026.9,000.0,036.7,030.1,11.6,0000.0,0012.69,0002.55,0001.25
2023-10-21 19:53:00,SystemResetWarning,0827.8,4.99,000.00,028.3,027.1,000.0,036.7,030.2,11.7,0000.0,0012.68,0002.51,0001.24
2023-10-21 19:54:00,SystemResetWarning,0828.1,5.00,000.00,028.4,027.2,000.0,036.7,030.2,11.6,0000.0,0012.41,0002.45,0001.24
2023-10-21 19:55:00,SystemResetWarning,0827.8,4.99,000.00,028.4,025.9,000.0,036.7,030.2,11.6,0000.0,0012.27,0002.47,0001.23
2023-10-21 19:56:00,SystemResetWarning,0827.8,5.01,000.00,028.3,024.4,000.0,036.6,029.9,11.9,0000.0,0010.54,0002.40,0001.22
2023-10-21 19:57:00,SystemResetWarning,0827.8,5.01,000.00,028.2,024.4,000.0,036.5,029.8,11.9,0000.0,0010.08,0002.38,0001.20
2023-10-21 19:58:00,SystemResetWarning,0827.8,5.00,000.00,028.2,024.7,000.0,036.5,029.7,12.1,0000.0,0010.75,0002.42,0001.20
2023-10-21 19:59:00,SystemResetWarning,0827.8,5.00,000.00,028.1,025.1,000.0,036.6,029.7,12.1,0000.0,0010.69,0002.47,0001.20
